Location: Trout Lake
(45.9980°N, 121.5270°W)
Time: 20:36:08
(UTC-08:00)

Nadezhda 4 Rocket - Pass Details

Date: 06 December 2023
Orbit: 950 x 991 km, 82.9° (Epoch: 22 February)

Event Time Altitude Azimuth Distance (km) Brightness Sun altitude
Rises 17:18:06 0° 179° (S) 3,626 7.3 -9.6°
Reaches altitude 10° 17:20:36 10° 177° (S) 2,679 6.6 -10.0°
Maximum altitude 17:26:41 72° 95° (E) 1,001 3.9 -11.0°
Drops below altitude 10° 17:32:47 10° 12° (NNE) 2,684 6.0 -12.0°
Sets 17:35:17 0° 11° (N) 3,633 6.7 -12.4°
